Station SGNW3 - Sheboygan, WI Image indicating link to RSS feed of recent meteorological observations for station SGNW3


Conditions at SGNW3 as of
(7:00 pm CDT on 07/18/2024)
0000 GMT on 07/19/2024:
     

Click on the graph icon in the table below to see a time series plot of the last five days of that observation.

5-day plot - Wind Direction Wind Direction (WDIR): S ( 170 deg true )
5-day plot - Wind Speed Wind Speed (WSPD): 9 kts
5-day plot - Wind Gust Wind Gust (GST): 10 kts
5-day plot - Atmospheric Pressure Atmospheric Pressure (PRES):30.16 in
5-day plot - Pressure Tendency Pressure Tendency (PTDY):-0.02 in ( Falling )
5-day plot - Air Temperature Air Temperature (ATMP): 67.6 °F
5-day plot - Wind Speed at 10 Meters Wind Speed at 10 meters (WSPD10M): 10 kts
5-day plot - Wind Speed at 20 Meters Wind Speed at 20 meters (WSPD20M): 10 kts
5-day plot -  Wind Speed, Wind Gust and Atmospheric Pressure Combined plot of Wind Speed, Gust, and Air Pressure
Continuous Winds
TIME
(CDT)
5-day plot - Wind Direction WDIR 5-day plot - Wind Speed WSPD
7:00 pmSSE ( 160 deg ) 9 kts
6:50 pmSSE ( 163 deg ) 10 kts
6:40 pmSSE ( 164 deg ) 10 kts
6:30 pmSSE ( 160 deg ) 11 kts
6:20 pmSSE ( 154 deg ) 11 kts
6:10 pmSSE ( 160 deg ) 10 kts
 
Peak gust during the measurement hour
TIME
(CDT)
5-day plot - Gust Direction GDR 5-day plot - Gust Speed GST
6:39 pmSSE ( 160 deg ) 12 kts
Previous observations
TIME
(CDT)
5-day plot - Wind Direction
WDIR
 
5-day plot - Wind Speed
WSPD
kts
5-day plot - Wind Gust
GST
kts
5-day plot - Wave Height
WVHT
ft
5-day plot - Dominant Wave Period
DPD
sec
5-day plot - Average Wave Period
APD
sec
5-day plot - Mean Wave Direction
MWD
 
5-day plot - Atmospheric Pressure
PRES
in
5-day plot - Pressure Tendency
PTDY
in
5-day plot - Air Temperature
ATMP
°F
5-day plot - Water Temperature
WTMP
°F
5-day plot - Dew Point
DEWP
°F
5-day plot - Salinity
SAL
psu
5-day plot - Visibility
VIS
nmi
5-day plot - Tide (above MLLW)
TIDE
ft
2024-07-18 06:00 pmSSE 10 11----30.17-0.01 67.5-----
2024-07-18 05:00 pm S 9 11----30.17-0.02 67.1-----
2024-07-18 04:00 pmSSE 9 10----30.18-0.01 66.9-----
2024-07-18 03:00 pm SE 9 9----30.18-0.01 66.4-----
2024-07-18 02:00 pmESE 7 8----30.19+0.00 66.2-----
2024-07-18 01:00 pmESE 7 8----30.19+0.00 65.7-----
2024-07-18 12:00 pm E 8 8----30.19+0.00 65.5-----
2024-07-18 11:00 amENE 7 8----30.19+0.00 65.5-----
2024-07-18 10:00 amNNE 9 11----30.19+0.01 65.5-----
2024-07-18 09:00 am N 9 9----30.19+0.02 64.9-----
2024-07-18 08:00 am NW 8 9----30.19+0.02 63.7-----
2024-07-18 07:00 amNNW 7 7----30.18+0.03 60.8-----
2024-07-18 06:00 am NW 10 12----30.17+0.03 60.1-----
2024-07-18 05:00 am NW 7 9----30.16+0.02 59.5-----
2024-07-18 04:00 am NW 8 9----30.15+0.00 60.4-----
2024-07-18 03:00 am NW 9 10----30.14+0.01 60.8-----
2024-07-18 02:00 am NW 7 8----30.14+0.04 60.6-----
2024-07-18 01:00 am NW 7 9----30.14+0.05 62.2-----
2024-07-18 12:00 amNNW 9 10----30.13+0.05 63.5-----
2024-07-17 11:00 pmNNE 18 21----30.11+0.05 65.5-----
2024-07-17 10:00 pmNNE 19 22----30.10+0.06 65.5-----
2024-07-17 09:00 pmNNE 21 24----30.08+0.05 65.8-----
2024-07-17 08:00 pmNNE 24 26----30.06+0.04 65.7-----
2024-07-17 07:00 pmNNW 14 17----30.04+0.03 70.0-----